Location: Mercogliano
(40.9167°N, 14.7333°E)
Time: 04:51:17
(UTC+00:00)

CZ-2C R/B - Pass Details

Date: 18 September 2020
Orbit: 391 x 588 km, 35.0° (Epoch: 25 October)

Event Time Altitude Azimuth Distance (km) Brightness Sun altitude
Rises 18:59:51 0° 255° (WSW) 2,427 5.4 -22.0°
Reaches altitude 10° 19:02:13 10° 244° (WSW) 1,523 4.1 -22.4°
Enters shadow 19:03:55 22° 222° (SW) 978 2.7 -22.7°
